Flag for U.S.A. Weather past 2 weeks in Warminster Township, Pennsylvania, U.S.A.

Now
38 °F

Clear.


Feels Like: 38 °F
Forecast: 42 / 64 °F
Wind: No wind

Location: Doylestown Airport


UV Index: 5 (Moderate)

Visibility: 10 mi


Pressure: 30.24 "Hg

Humidity: 93%

Dew point: 36 °F

Location of Warminster TownshipLocation

Historic Weather in Warminster Township

°F

Warminster Township temperature yesterday

Maximum temperature yesterday: 49 °F (at 3:54 PM)
Minimum temperature yesterday: 35 °F (at 12:54 AM)
Average temperature yesterday: 41 °F

Past Weeks' High & Low Weather Summary

 TemperatureHumidityPressure
High78 °F (Apr 13, 2:54 PM)100% (Apr 4, 1:54 AM)30.71 "Hg (Apr 4, 1:54 AM)
Low27 °F (Apr 16, 5:54 AM)24% (Apr 6, 4:54 PM)29.45 "Hg (Apr 8, 12:54 PM)
Average50 °F65%30.05 "Hg
* Reported Apr 4 1:54 AM — Apr 19 1:54 AM, Warminster Township, Weather by CustomWeather, © 2014

Note: Actual official high and low records may vary slightly from our data, if they occured in-between our weather recording intervals... More about our weather records

Advertising

Historic Weather Conditions — Data for Previous 24 hours

 ConditionsComfort  
Time TempWeatherWind HumidityBarometerVisibility
1:54 AM
Apr 19
38 °FClear.No wind93%30.26 "Hg10 mi
12:54 AM40 °FClear.No wind86%30.27 "Hg10 mi
11:54 PM
Apr 18
41 °FClear.3 mph82%30.27 "Hg10 mi
10:54 PM43 °FClear.5 mph76%30.29 "Hg10 mi
9:54 PM44 °FClear.No wind68%30.29 "Hg10 mi
8:54 PM45 °FClear.No wind63%30.30 "Hg10 mi
7:54 PM47 °FSunny.No wind56%30.29 "Hg10 mi
6:54 PM49 °FSunny.No wind48%30.31 "Hg10 mi
5:54 PM49 °FSunny.5 mph48%30.32 "Hg10 mi
4:54 PM49 °FSunny.5 mph48%30.35 "Hg10 mi
3:54 PM49 °FSunny.5 mph50%30.36 "Hg10 mi
2:54 PM48 °FSunny.No wind50%30.39 "Hg10 mi
1:54 PM45 °FSunny.3 mph58%30.44 "Hg10 mi
12:54 PM42 °FSunny.No wind57%30.46 "Hg10 mi
11:54 AM42 °FPassing clouds.No wind62%30.48 "Hg10 mi
10:54 AM41 °FScattered clouds.5 mph67%30.49 "Hg10 mi
9:54 AM39 °FPartly sunny.No wind67%30.52 "Hg10 mi
8:54 AM37 °FOvercast.3 mph76%30.53 "Hg10 mi
7:54 AM36 °FOvercast.3 mph75%30.54 "Hg10 mi
6:54 AM35 °FOvercast.3 mph78%30.53 "Hg10 mi
5:54 AM35 °FOvercast.No wind78%30.51 "Hg10 mi
4:54 AM35 °FOvercast.No wind78%30.51 "Hg10 mi
3:54 AM35 °FOvercast.5 mph78%30.51 "Hg10 mi
Weather by CustomWeather, © 2014

See weather overview